Volver al catálogo

STARLINK-32589

ActivoComunicacionesVLEO
NORAD 62183·PAYLOAD·🇺🇸 United States

Lanzado Nov 30, 2024 desde Vandenberg Space Force Base

Loading…

Próximos Pases (próximas 24 horas)

TLE

ActualizadoSource: CelesTrak SupGP

Época: Sep 15, 2026, 03:24 UTC

1 62183C 24225W   26258.14215278 -.00015417  00000+0 -12921-2 0  2582
2 62183  70.0018  46.9816 0002970 263.5859 255.9285 14.98335928    17

Sigue STARLINK-32589 en tiempo real con AllMySat

Download on the App Store